Wetterdaten: aktuell Mittwoch, 13.11.2019 13:30
Datum Zeit Temp. A. Feuchte A. Luftdruck Regen Wind Richtung Richtung Taupunkt Windchill Windben Empfang
13.11.2019 13:30 1,2 C 93 % 1006,9 hPa 0,2 l/m 6,0 km/h (2 Bft) W-SW 245 0,2 C 1,2 C 8,0 km/h (2 Bft) 100 %
13.11.2019 13:28 1,2 C 93 % 1006,9 hPa 0,0 l/m 4,7 km/h (1 Bft) W 263 0,2 C 1,2 C 6,4 km/h (2 Bft) 100 %
13.11.2019 13:26 1,2 C 93 % 1006,9 hPa 0,0 l/m 5,1 km/h (1 Bft) W-NW 283 0,2 C 1,2 C 6,4 km/h (2 Bft) 100 %
13.11.2019 13:24 1,2 C 93 % 1007,0 hPa 0,0 l/m 4,4 km/h (1 Bft) W-SW 258 0,2 C 1,2 C 6,4 km/h (2 Bft) 100 %
13.11.2019 13:22 1,2 C 93 % 1006,9 hPa 0,2 l/m 6,1 km/h (2 Bft) W 266 0,2 C 1,2 C 8,0 km/h (2 Bft) 100 %
13.11.2019 13:20 1,2 C 93 % 1006,9 hPa 0,0 l/m 6,2 km/h (2 Bft) W 266 0,2 C 1,2 C 8,0 km/h (2 Bft) 100 %
13.11.2019 13:18 1,2 C 93 % 1006,9 hPa 0,0 l/m 5,7 km/h (1 Bft) W 268 0,2 C 1,2 C 8,0 km/h (2 Bft) 100 %
13.11.2019 13:16 1,2 C 93 % 1006,9 hPa 0,0 l/m 4,9 km/h (1 Bft) W-SW 258 0,2 C 1,2 C 8,0 km/h (2 Bft) 100 %
13.11.2019 13:14 1,2 C 93 % 1006,9 hPa 0,2 l/m 4,3 km/h (1 Bft) W-SW 255 0,2 C 1,2 C 6,4 km/h (2 Bft) 100 %
13.11.2019 13:12 1,2 C 93 % 1007,0 hPa 0,0 l/m 3,7 km/h (1 Bft) SW 236 0,2 C 1,2 C 4,8 km/h (1 Bft) 100 %
13.11.2019 13:10 1,2 C 94 % 1007,1 hPa 0,0 l/m 4,5 km/h (1 Bft) W-SW 250 0,3 C 1,2 C 8,0 km/h (2 Bft) 100 %
13.11.2019 13:08 1,2 C 94 % 1007,1 hPa 0,2 l/m 3,5 km/h (1 Bft) W 266 0,3 C 1,2 C 4,8 km/h (1 Bft) 100 %
13.11.2019 13:06 1,2 C 93 % 1007,0 hPa 0,0 l/m 2,7 km/h (1 Bft) W-SW 252 0,2 C 1,2 C 4,8 km/h (1 Bft) 100 %
13.11.2019 13:04 1,2 C 93 % 1007,0 hPa 0,0 l/m 3,1 km/h (1 Bft) W 265 0,2 C 1,2 C 4,8 km/h (1 Bft) 100 %
13.11.2019 13:02 1,2 C 93 % 1007,0 hPa 0,0 l/m 4,3 km/h (1 Bft) W-NW 288 0,2 C 1,2 C 4,8 km/h (1 Bft) 100 %
13.11.2019 13:00 1,2 C 94 % 1007,0 hPa 0,2 l/m 4,4 km/h (1 Bft) SW 234 0,3 C 1,2 C 8,0 km/h (2 Bft) 100 %
13.11.2019 12:58 1,2 C 93 % 1007,0 hPa 0,0 l/m 2,6 km/h (1 Bft) W 266 0,2 C 1,2 C 4,8 km/h (1 Bft) 100 %
13.11.2019 12:56 1,2 C 93 % 1006,9 hPa 0,0 l/m 2,3 km/h (1 Bft) W 259 0,2 C 1,2 C 4,8 km/h (1 Bft) 100 %
13.11.2019 12:54 1,2 C 93 % 1006,9 hPa 0,0 l/m 3,2 km/h (1 Bft) W-SW 249 0,2 C 1,2 C 3,2 km/h (1 Bft) 100 %
13.11.2019 12:52 1,2 C 93 % 1007,0 hPa 0,2 l/m 3,8 km/h (1 Bft) W 267 0,2 C 1,2 C 4,8 km/h (1 Bft) 100 %
13.11.2019 12:50 1,2 C 93 % 1007,0 hPa 0,0 l/m 3,6 km/h (1 Bft) W-SW 257 0,2 C 1,2 C 6,4 km/h (2 Bft) 100 %
13.11.2019 12:48 1,3 C 94 % 1007,0 hPa 0,0 l/m 2,1 km/h (1 Bft) S-SW 213 0,4 C 1,3 C 4,8 km/h (1 Bft) 100 %
13.11.2019 12:46 1,3 C 94 % 1006,9 hPa 0,2 l/m 0,2 km/h (0 Bft) S-SW 210 0,4 C 1,3 C 1,6 km/h (1 Bft) 100 %
13.11.2019 12:44 1,2 C 94 % 1007,0 hPa 0,0 l/m 1,8 km/h (1 Bft) S-SW 210 0,3 C 1,2 C 3,2 km/h (1 Bft) 100 %
13.11.2019 12:42 1,2 C 94 % 1007,0 hPa 0,0 l/m 2,5 km/h (1 Bft) W-SW 252 0,3 C 1,2 C 4,8 km/h (1 Bft) 100 %
13.11.2019 12:40 1,2 C 94 % 1006,9 hPa 0,0 l/m 1,5 km/h (1 Bft) W 277 0,3 C 1,2 C 3,2 km/h (1 Bft) 96 %
13.11.2019 12:38 1,2 C 94 % 1007,0 hPa 0,2 l/m 2,5 km/h (1 Bft) SW 226 0,3 C 1,2 C 4,8 km/h (1 Bft) 93 %
13.11.2019 12:36 1,2 C 94 % 1006,9 hPa 0,0 l/m 2,3 km/h (1 Bft) W 276 0,3 C 1,2 C 4,8 km/h (1 Bft) 93 %
13.11.2019 12:34 1,2 C 94 % 1006,9 hPa 0,0 l/m 3,1 km/h (1 Bft) W-SW 240 0,3 C 1,2 C 6,4 km/h (2 Bft) 100 %
13.11.2019 12:32 1,2 C 94 % 1006,9 hPa 0,0 l/m 2,2 km/h (1 Bft) W-SW 243 0,3 C 1,2 C 3,2 km/h (1 Bft) 96 %
13.11.2019 12:30 1,2 C 94 % 1006,8 hPa 0,2 l/m 2,8 km/h (1 Bft) S-SW 200 0,3 C 1,2 C 4,8 km/h (1 Bft) 93 %
_ Min-Zeit 04:12 00:00 04:08 - 00:18 - - 03:12 08:14 00:20 07:48
Minimum _ -0,1 C 93 % 1004,7 hPa - 0,0 km/h (0 Bft) - - -0,9 C -4,2 C 0,0 km/h (0 Bft) 89 %
_ Max-Zeit 12:46 02:58 00:00 00:12 08:14 - - 12:46 12:46 08:10 00:00
Maximum _ 1,3 C 94 % 1007,8 hPa 0,2 l/m 11,7 km/h
W-NW (2 Bft)
- - 0,4 C 1,3 C 16,1 km/h
W-NW (3 Bft)
100 %
Durchschnitt _ 0,5 C 94 % 1006,0 hPa #7,4 l/m 2,8 km/h (1 Bft) W-SW - -0,4 C 0,4 C 4,2 km/h (1 Bft) 100 %